Date,TemperatureHighF,TemperatureAvgF,TemperatureLowF,DewpointHighF,DewpointAvgF,DewpointLowF,HumidityHigh,HumidityAvg,HumidityLow,PressureMaxIn,PressureMinIn,WindSpeedMaxMPH,WindSpeedAvgMPH,GustSpeedMaxMPH,PrecipitationSumIn
2013-1-1,33.3,26.3,17.4,32.8,25.8,17.0,98,98,98,29.97,29.80,13,5,0,0.00
2013-1-2,28.6,22.5,18.3,28.1,22.1,17.9,98,98,98,30.11,29.92,18,8,0,0.00
2013-1-3,31.1,25.9,18.5,30.6,25.4,18.0,98,98,98,30.08,29.86,19,7,0,0.00
2013-1-4,34.9,31.0,28.6,34.4,30.5,28.1,98,98,98,29.96,29.78,27,14,0,0.00
2013-1-5,36.1,31.9,27.5,35.6,31.4,27.0,98,98,98,30.20,29.94,12,6,0,0.00
2013-1-6,37.4,36.1,34.3,36.9,35.6,33.8,98,98,98,30.01,29.78,13,8,0,0.00
2013-1-7,36.0,30.8,25.0,35.5,30.3,24.5,98,98,98,30.32,30.03,21,6,0,0.00
2013-1-8,40.8,34.7,29.8,40.3,34.2,29.3,98,98,98,30.21,30.04,17,5,0,0.00
2013-1-9,47.3,40.9,32.5,46.8,40.4,32.0,98,98,98,30.27,29.85,24,9,0,0.00
2013-1-10,45.7,37.9,33.4,45.1,37.4,32.9,98,98,98,30.51,30.28,9,3,0,0.00
2013-1-11,50.9,42.5,34.5,50.4,42.0,34.0,98,98,98,30.28,29.74,13,4,0,0.09
2013-1-12,59.9,53.4,47.7,59.3,52.9,47.1,98,98,98,29.88,29.80,20,7,0,0.00
2013-1-13,63.0,53.2,45.0,62.4,52.6,44.4,98,98,98,29.84,29.61,21,5,0,1.75
2013-1-14,44.6,33.0,27.1,44.1,32.5,26.7,98,98,98,30.31,29.68,20,8,0,0.09
2013-1-15,34.2,29.7,26.6,33.7,29.2,26.1,98,98,98,30.33,30.09,10,4,0,0.00
2013-1-16,40.6,33.0,27.1,40.1,32.5,26.7,98,98,98,30.07,29.67,20,5,0,0.00
2013-1-17,36.0,26.0,18.1,35.5,25.5,17.7,98,98,98,30.10,29.76,18,7,0,0.00
2013-1-18,35.6,23.3,13.8,35.1,22.8,13.4,98,98,98,30.36,29.88,15,7,0,0.00
2013-1-19,48.2,42.1,35.8,47.7,41.6,35.3,98,98,98,29.89,29.45,24,11,0,0.00
2013-1-20,48.2,29.8,19.0,47.7,29.3,18.6,98,98,98,30.01,29.35,32,16,0,0.04
2013-1-21,21.7,17.6,12.4,21.3,17.1,11.9,98,98,98,29.99,29.83,18,8,0,0.00
2013-1-22,14.7,10.0,6.8,13.9,9.4,6.4,98,97,88,30.12,29.83,29,14,0,0.00
2013-1-23,17.1,9.7,5.9,15.3,9.0,5.5,98,97,88,30.15,30.05,22,7,0,0.00
2013-1-24,21.0,14.9,9.3,20.5,14.4,8.9,98,98,98,30.45,30.25,15,5,0,0.00
2013-1-25,20.8,14.3,9.1,20.4,13.9,8.7,98,98,98,30.43,29.99,10,3,0,0.00
2013-1-26,28.2,20.3,12.9,27.7,19.8,12.5,98,98,98,30.32,29.99,7,2,0,0.00
2013-1-27,33.6,25.9,19.0,33.1,25.4,18.6,98,98,98,30.47,30.22,8,2,0,0.00
2013-1-28,42.6,35.1,25.7,42.1,34.5,25.2,98,98,98,30.22,29.74,12,4,0,0.56
2013-1-29,39.0,36.9,35.8,38.5,36.4,35.3,98,98,98,29.94,29.90,6,2,0,0.00
2013-12-22,36.9,34.0,32.0,36.3,31.8,-99.9,98,95,77,29.83,29.49,1,-11,0,0.48
2013-12-23,37.0,32.4,24.3,36.3,19.7,3.3,98,61,36,30.17,29.82,2,0,0,0.01
2013-12-24,26.4,21.0,9.0,14.9,2.4,-10.4,65,44,30,30.43,30.13,1,0,0,0.00
2013-12-25,24.1,19.6,7.9,7.1,-1.0,-10.9,49,40,32,30.42,30.04,0,0,0,0.00
2013-12-26,41.0,28.1,22.5,20.0,7.6,-1.0,71,42,25,30.18,29.93,4,0,0,0.11
2013-12-27,37.8,29.4,21.4,22.3,11.2,-1.0,76,47,32,30.18,29.93,3,1,0,0.01
2013-12-28,43.3,39.4,34.5,19.2,17.5,15.3,52,41,35,29.98,29.79,5,2,0,0.17
2013-12-29,45.7,40.6,27.1,19.2,11.0,0.7,44,30,15,29.79,29.50,3,1,0,0.00
2013-12-30,27.1,21.1,18.7,3.2,-9.9,-19.1,35,25,14,30.12,29.71,3,0,0,0.00
2013-12-31,23.0,18.4,13.8,4.2,-7.1,-16.5,48,32,21,30.17,29.86,5,1,0,0.00
2014-1-1,23.2,17.1,13.5,0.1,-7.7,-18.4,48,33,15,30.30,30.17,3,1,0,0.00
2014-1-2,16.3,12.4,5.9,1.8,-2.9,-9.5,52,49,47,30.21,29.92,7,1,0,0.00